Weinstadt-Endersbach, Germany

10:01 AM CET on January 23, 2017 (GMT +0100)
Stuttgart

Weather History for EDDS - October, 2012

Change the Weather History Date:

Tuesday, October 2, 2012

  Actual Average Record
Temperature  
Mean Temperature 56 °F -  
Max Temperature 65 °F 61 °F 80 °F (2001)
Min Temperature 46 °F 46 °F 37 °F (2002)
Degree Days  
Heating Degree Days 10    
Growing Degree Days 6 (Base 50)    
Moisture  
Dew Point 45 °F    
Average Humidity 68    
Maximum Humidity 93    
Minimum Humidity 25    
Precipitation  
Precipitation 0.00 in - - ()
Sea Level Pressure  
Sea Level Pressure 30.10 in    
Wind  
Wind Speed 3 mph ()    
Max Wind Speed 9 mph    
Max Gust Speed -    
Visibility 7.8 miles    
Events      
Averages and records for this station are not official NWS values.
T = Trace of Precipitation, MM = Missing Value Source: Averaged Metar Reports

Daily Weather History Graph

Daily Weather History Graph

Search for Another Location

Airport or City:

Trip Planner

Search our weather history database for the weather conditions in past years. The results will help you decide how hot, cold, wet, or windy it might be!

Date:

Astronomy

Oct. 02, 2012 Rise Set
Actual Time 7:24 AM CEST 6:59 PM CEST
Civil Twilight 6:53 AM CEST 7:30 PM CEST
Nautical Twilight 6:16 AM CEST 8:07 PM CEST
Astronomical Twilight 5:39 AM CEST 8:44 PM CEST
Moon 7:45 PM CEST (10/2) 9:51 AM CEST (10/2)
Length of Visible Light 12h 37m
Length of Day
11h 35m
Waning Gibbous, 95% of the Moon is Illuminated
Oct 2
Waning Gibbous
Oct 8
Last Quarter
Oct 15
New
Oct 22
First Quarter
Oct 29
Full

Hourly Weather History & Observations

Time (CEST) Temp. Dew Point Humidity Pressure Visibility Wind Dir Wind Speed Gust Speed Precip Events Conditions
12:00 AM 55 °F 50 °F 78% 30.12 in 12 mi SW 2.2 mph - -   Mostly Cloudy
12:20 AM 55.4 °F 50.0 °F 82% 30.09 in - WSW 4.6 mph - N/A   Clear
12:50 AM 55.4 °F 48.2 °F 77% 30.09 in 6.2 mi Variable 2.3 mph - N/A   Mostly Cloudy
1:00 AM 55 °F 49 °F 76% 30.12 in 12 mi SSW 2.2 mph - -   Mostly Cloudy
1:20 AM 55.4 °F 48.2 °F 77% 30.09 in 6.2 mi WSW 1.2 mph - N/A   Mostly Cloudy
1:50 AM 53.6 °F 48.2 °F 82% 30.09 in 6.2 mi SW 2.3 mph - N/A   Mostly Cloudy
2:00 AM 54 °F 49 °F 79% 30.11 in 12 mi SW 2.2 mph - -   Mostly Cloudy
2:20 AM 53.6 °F 48.2 °F 82% 30.09 in 6.2 mi SW 3.5 mph - N/A   Mostly Cloudy
2:50 AM 53.6 °F 48.2 °F 82% 30.09 in 6.2 mi WSW 4.6 mph - N/A   Mostly Cloudy
3:00 AM 54 °F 50 °F 81% 30.11 in 12 mi WSW 4.5 mph - -   Mostly Cloudy
3:20 AM 53.6 °F 48.2 °F 82% 30.09 in 6.2 mi West 5.8 mph - N/A   Mostly Cloudy
3:50 AM 51.8 °F 48.2 °F 88% 30.09 in 6.2 mi WSW 4.6 mph - N/A   Scattered Clouds
4:00 AM 53 °F 48 °F 79% 30.11 in 12 mi SSW 2.2 mph - -   Partly Cloudy
4:20 AM 50.0 °F 46.4 °F 87% 30.09 in 6.2 mi Variable 1.2 mph - N/A   Scattered Clouds
4:50 AM 48.2 °F 44.6 °F 87% 30.09 in 6.2 mi SSE 2.3 mph - N/A   Scattered Clouds
5:20 AM 48.2 °F 46.4 °F 93% 30.09 in 6.2 mi West 3.5 mph - N/A   Scattered Clouds
5:50 AM 48.2 °F 44.6 °F 87% 30.09 in 6.2 mi SSW 1.2 mph - N/A   Partly Cloudy
6:00 AM 47 °F 45 °F 92% 30.13 in 12 mi SSW 2.2 mph - -   Scattered Clouds
6:20 AM 48.2 °F 44.6 °F 87% 30.09 in 6.2 mi WSW 2.3 mph - N/A   Partly Cloudy
6:50 AM 50.0 °F 44.6 °F 82% 30.09 in - WSW 2.3 mph - N/A   Clear
7:00 AM 49 °F 46 °F 87% 30.13 in 12 mi WSW 2.2 mph - -   Scattered Clouds
7:20 AM 50.0 °F 44.6 °F 82% 30.12 in - Variable 1.2 mph - N/A   Clear
7:50 AM 48.2 °F 44.6 °F 87% 30.12 in - Variable 1.2 mph - N/A   Clear
8:00 AM 48 °F 45 °F 84% 30.14 in 22 mi SSW 2.2 mph - -   Partly Cloudy
8:20 AM 46.4 °F 44.6 °F 93% 30.12 in - West 1.2 mph - N/A   Clear
8:50 AM 48.2 °F 44.6 °F 87% 30.12 in - SW 2.3 mph - N/A   Clear
9:00 AM 49 °F 45 °F 81% 30.15 in 37 mi SW 2.2 mph - -   Partly Cloudy
9:20 AM 51.8 °F 46.4 °F 82% 30.12 in - Variable 1.2 mph - N/A   Clear
9:50 AM 55.4 °F 46.4 °F 72% 30.12 in - ENE 2.3 mph - N/A   Clear
10:00 AM 55 °F 47 °F 67% 30.13 in 31 mi ENE 2.2 mph - -   Scattered Clouds
10:20 AM 57.2 °F 46.4 °F 67% 30.12 in - SE 1.2 mph - N/A   Clear
10:50 AM 57.2 °F 46.4 °F 67% 30.12 in - SW 5.8 mph - N/A   Clear
11:20 AM 60.8 °F 46.4 °F 59% 30.12 in - SSW 3.5 mph - N/A   Clear
11:50 AM 60.8 °F 44.6 °F 55% 30.12 in 6.2 mi SW 4.6 mph - N/A   Mostly Cloudy
12:20 PM 60.8 °F 46.4 °F 59% 30.12 in 6.2 mi SW 5.8 mph - N/A   Mostly Cloudy
12:50 PM 60.8 °F 44.6 °F 55% 30.12 in 6.2 mi WSW 5.8 mph - N/A   Mostly Cloudy
1:00 PM 60 °F 46 °F 50% 30.12 in 37 mi WSW 4.5 mph - -   Scattered Clouds
1:20 PM 62.6 °F 44.6 °F 52% 30.12 in 6.2 mi WSW 9.2 mph - N/A   Mostly Cloudy
1:50 PM 60.8 °F 44.6 °F 55% 30.12 in 6.2 mi West 4.6 mph - N/A   Mostly Cloudy
2:00 PM 61 °F 45 °F 44% 30.09 in 37 mi West 4.5 mph - -   Scattered Clouds
2:20 PM 62.6 °F 42.8 °F 48% 30.09 in 6.2 mi SW 4.6 mph - N/A   Mostly Cloudy
2:50 PM 62.6 °F 42.8 °F 48% 30.09 in 6.2 mi SW 4.6 mph - N/A   Scattered Clouds
3:00 PM 63 °F 44 °F 38% 30.08 in 44 mi SW 4.5 mph - -   Scattered Clouds
3:20 PM 64.4 °F 44.6 °F 49% 30.09 in - Variable 3.5 mph - N/A   Clear
3:50 PM 64.4 °F 35.6 °F 34% 30.09 in - SSW 4.6 mph - N/A   Clear
4:00 PM 64 °F 37 °F 25% 30.07 in 44 mi SSW 4.5 mph - -   Scattered Clouds
4:20 PM 64.4 °F 42.8 °F 45% 30.09 in - SW 3.5 mph - N/A   Clear
4:50 PM 64.4 °F 39.2 °F 40% 30.06 in - Variable 2.3 mph - N/A   Clear
5:20 PM 64.4 °F 42.8 °F 45% 30.06 in - South 2.3 mph - N/A   Clear
5:50 PM 62.6 °F 42.8 °F 48% 30.06 in - Variable 2.3 mph - N/A   Clear
6:00 PM 64 °F 45 °F 38% 30.05 in 44 mi South 2.2 mph - -   Scattered Clouds
6:20 PM 62.6 °F 42.8 °F 48% 30.06 in - South 2.3 mph - N/A   Clear
6:50 PM 62.6 °F 42.8 °F 48% 30.06 in - Variable 1.2 mph - N/A   Clear
7:00 PM 62 °F 44 °F 39% 30.06 in 44 mi SSE 2.2 mph - -   Scattered Clouds
7:20 PM 60.8 °F 42.8 °F 52% 30.06 in - South 2.3 mph - N/A   Clear
7:50 PM 57.2 °F 44.6 °F 63% 30.06 in - Variable 1.2 mph - N/A   Clear
8:00 PM 58 °F 46 °F 54% 30.07 in 44 mi South 2.2 mph - -   Scattered Clouds
8:20 PM 55.4 °F 44.6 °F 67% 30.06 in - West 5.8 mph - N/A   Clear
8:50 PM 55.4 °F 44.6 °F 67% 30.09 in - WSW 3.5 mph - N/A   Clear
9:00 PM 54 °F 46 °F 65% 30.09 in 44 mi WSW 4.5 mph - -   Clear
9:20 PM 53.6 °F 42.8 °F 67% 30.09 in - SSW 2.3 mph - N/A   Clear
9:50 PM 50.0 °F 42.8 °F 76% 30.09 in - West 4.6 mph - N/A   Clear
10:00 PM 49 °F 43 °F 74% 30.11 in 37 mi West 4.5 mph - -   Clear
10:20 PM 50.0 °F 42.8 °F 76% 30.09 in - WSW 2.3 mph - N/A   Clear
10:50 PM 50.0 °F 42.8 °F 76% 30.09 in - Variable 1.2 mph - N/A   Clear
11:20 PM 50.0 °F 44.6 °F 82% 30.09 in - Variable 1.2 mph - N/A   Clear
11:50 PM 48.2 °F 42.8 °F 82% 30.09 in - Variable 1.2 mph - N/A   Clear